Regional Weather Roundup
Issued by NWS Upton, NY

Current Version | Previous Version | Text Only | Print | Product List | Glossary On
Versions: 1 2 3 4 5 6 7 8 9 10 11 12 13 14 15 16 17 18 19 20 21 22 23 24 25 26 27 28 29 30 31 32 33 34 35 36 37 38 39 40 41 42 43 44 45 46 47 48 49 50
000
ASUS41 KOKX 031204
RWROKX

REGIONAL WEATHER ROUNDUP
NATIONAL WEATHER SERVICE NEW YORK NY
800 AM EDT TUE MAY 03 2016

NOTE: "FAIR" INDICATES FEW OR NO CLOUDS BELOW 12,000 FEET WITH NO
SIGNIFICANT WEATHER AND/OR OBSTRUCTIONS TO VISIBILITY.

NYZ071-072-176-178-NJZ106-104-031300-
NEW YORK CITY METRO AREA


CITY           SKY/WX    TMP DP  RH WIND       PRES   REMARKS
CENTRAL PARK   LGT RAIN  52  50  93 VRB7      29.90S FOG
LAGUARDIA APRT LGT RAIN  54  50  86 NE9       29.87S
KENNEDY INTL   LGT RAIN  53  51  93 NE9       29.88S FOG
NEWARK/LIBERTY LGT RAIN  54  53  97 NE6       29.87S
BRNX BOT. GARD   N/A     52  50  93 SE8       29.90S
TETERBORO      RAIN      53  49  86 VRB3      29.87S FOG
$$

NYZ177-179-078>081-031300-
LONG ISLAND NEW YORK

CITY           SKY/WX    TMP DP  RH WIND       PRES   REMARKS
FARMINGDALE    LGT RAIN  52  51  97 NE7       29.87F
ISLIP          NOT AVBL
SHIRLEY        RAIN      52  51  97 N3        29.89S FOG
RIVERHEAD        N/A     52  50  93 NE1       29.89S
WESTHAMPTON    RAIN      49  49 100 NE5       29.90S FOG
EAST HAMPTON   LGT RAIN  49  49  97 E3        29.89R
MONTAUK POINT    N/A     49  48  97 NE7       29.91R
$$

NYZ052-065-067-031300-
HUDSON VALLEY

CITY           SKY/WX    TMP DP  RH WIND       PRES   REMARKS
WHITE PLAINS   LGT RAIN  50  49  96 E7        29.87F FOG
NEWBURGH       LGT RAIN  48  48 100 NE8       29.91S FOG
MONTGOMERY     LGT RAIN  49  47  93 NE6       29.90S
POUGHKEEPSIE   LGT RAIN  51  47  86 N6        29.91R
ALBANY         CLOUDY    47  41  80 NE6       29.93R
$$

NJZ001-105-106-008-010-013-015-019>022-104-031300-
NEW JERSEY

CITY           SKY/WX    TMP DP  RH WIND       PRES   REMARKS
NEWARK/LIBERTY LGT RAIN  54  53  97 NE6       29.87S
TETERBORO      RAIN      53  49  86 VRB3      29.87S FOG
CALDWELL       LGT RAIN  52  49  89 E7        29.88S
MORRISTOWN     NOT AVBL
SOMERVILLE     CLOUDY    54  51  90 E3        29.84S
SUSSEX         LGT RAIN  50  48  93 N8        29.89R FOG
ANDOVER          N/A     50  49  96 NE5       29.87S
TRENTON        LGT RAIN  54  52  93 E12       29.82F
MILLVILLE      LGT RAIN  56  55  97 NE6       29.79F
ATLANTIC CITY  LGT RAIN  54  53  97 NE7       29.81R VSB 1/2
WRIGHTSTOWN    NOT AVBL
TOMS RIVER     CLOUDY    54  48  82 NE9       29.84S
BELMAR         LGT RAIN  52  52 100 E9        29.85F FOG
$$

PAZ047>061-062-071-031300-
EASTERN PENNSYLVANIA

CITY           SKY/WX    TMP DP  RH WIND       PRES   REMARKS
PHILADELPHIA   LGT RAIN  57  52  83 E8        29.82S
ALLENTOWN      RAIN      53  50  89 NE8       29.85S FOG
SCRANTON       LGT RAIN  48  47  96 N6        29.87S
$$

CTZ002-004>006-009-010-012-RIZ004-006-007-MAZ004-011-015-031300-
SOUTHERN NEW ENGLAND
 IN CT

CITY           SKY/WX    TMP DP  RH WIND       PRES   REMARKS
BRADLEY INTL   LGT RAIN  48  47  96 N3        29.89F FOG
HARTFORD       LGT RAIN  52  49  89 CALM      29.90S FOG
DANBURY        LGT RAIN  50  47  89 CALM      29.90S FOG
WTRBRY/OXFORD  LGT RAIN  48  45  87 CALM      29.91R VSB 1
BRIDGEPORT     LGT RAIN  52  50  93 E8        29.89S FOG
MERIDEN        LGT RAIN  51  49  92 CALM      29.90R FOG
NEW HAVEN      LGT RAIN  51  50  96 E3        29.89S FOG
CHESTER        LGT RAIN  50  50 100 E3        29.89S
GROTON         RAIN      50  50 100 E5        29.90R FOG
WILLIMANTIC    RAIN      50  47  89 CALM      29.91R FOG

 IN RI

CITY           SKY/WX    TMP DP  RH WIND       PRES   REMARKS
PROVIDENCE     RAIN      48  46  93 E8        29.91F FOG
BLOCK ISLAND   LGT RAIN  47  47 100 NE8       29.90R FOG
WESTERLY       LGT RAIN  49  46  90 E6        29.91R FOG

 IN MA

CITY           SKY/WX    TMP DP  RH WIND       PRES   REMARKS
BOSTON         LGT RAIN  46  43  89 NE7       29.93F
WORCESTER      LGT RAIN  45  44  97 E6        29.90R VSB 1/4
WESTFIELD      LGT RAIN  47  45  93 N8        29.91R
PROVINCETOWN   LGT RAIN  46  44  93 E5        29.94S
NANTUCKET      LGT RAIN  47  44  90 NE10      29.91F
$$

ANZ330-335-338-340-345-350-353-355-031300-
COASTAL MARINE OBSERVATIONS


STATION/POSITION TIME  SKY/WX   TEMP    WIND        PRES    VSBY  WAVE
                                AIR SEA DIR/SP/G                  HT/PER
                 (UTC)          (F)     (DEG/KT/KT) (MB)    (MI)  (FT/S)
NY HARB ENTRANCE 1050            52 51   40/  8/ 10 1011.1          3/ 7
20S FIRE ISLAND  1050            49 49   50/ 10/ 10 1010.3          3/ 9
GREAT SOUTH BAY  1100            53 56   20/  8/ 12   N/A
23 SSW MONTAUK P 1150            48 47   60/ 10/ 12 1011.0          3/ 9
15 E BARNEGAT LI 1122               51                N/A           3/ 9
HUDSON CANYON    1050            52 49              1009.3          4/ 9
KINGS POINT      1100            51 53              1011.4
EXECUTION ROCKS  NOT AVBL
CENTRAL LI SOUND NOT AVBL
EASTERN LI SOUND 1100            49 48   70/ 10/ 12   N/A
ROBBINS REEF     1100            53      70/ 12/ 14 1010.9
$$


>>>>>>>>>>>>>>>>>>>>>>>>>>>> KEY <<<<<<<<<<<<<<<<<<<<<<<<<<<
>                                                          <
>     SKY/WX - SKY CONDITION/PRESENT WEATHER               <
>     TMP    - TEMPERATURE IN FAHRENHEIT                   <
>     DP     - DEWPOINT IN FAHRENHEIT                      <
>     RH     - RELATIVE HUMIDITY IN PERCENT                <
>     WIND   - DIRECTION AND SPEED IN MPH                  <
>     PRES   - MEAN SEA LEVEL PRESSURE IN INCHES OF HG     <
>     WCI    - WIND CHILL INDEX                            <
>     VSB    - VISIBILITY IN MILES                         <
>     HX     - HEAT INDEX                                  <
>     TC     - TEMPERATURE IN CELSIUS                      <
>     VRB    - VARIABLE WIND DIRECTION                     <
>                                                          <
>>>>>>>>>>>>>>>>>>>>>>>>>>>> KEY <<<<<<<<<<<<<<<<<<<<<<<<<<<





USA.gov is the U.S. government's official web portal to all federal, state and local government web resources and services.